Hourly Data Report for May 10, 2021

WIARTON A
ONTARIO
Current Station Operator: NAVCAN

44°44'39.000" N
81°06'31.000" W
221.90 m
6119499
71633
YVV

Download Data

Hourly Data (May 2021)
Hourly Data Report for May 10, 2021
TIME
LST
Temp Definition
°C
Dew Point Definition
°C
Rel Hum Definition
%
Precip. Amount Definition
mm

Wind Dir Definition
10's deg

Wind Spd Definition
km/h
Visibility Definition
km
Stn Press Definition
kPa
Hmdx Definition


Wind Chill Definition


Weather Definition


00:00 2.4 0.3 86   21 12 24.1 98.70     LegendNANA
01:00 2.9 1.6 91   23 8 24.1 98.67     Clear
02:00 3.5 2.8 95   26 6 24.1 98.63     LegendNANA
03:00 3.3 2.7 96   36 3 24.1 98.63     LegendNANA
04:00 2.4 2.1 98   25 4 24.1 98.71     Clear
05:00 -0.8 -1.1 98   17 5 24.1 98.77   -2 LegendNANA
06:00 3.6 2.8 94   27 4 24.1 98.83     LegendNANA
07:00 5.3 3.3 87   28 7 24.1 98.89     Clear
08:00 6.1 4.0 86   28 10 24.1 98.90     LegendNANA
09:00 7.4 3.2 75   30 14 24.1 98.88     LegendNANA
10:00 8.7 3.2 68   28 14 24.1 98.92     Mainly Clear
11:00 9.1 2.5 63   26 19 24.1 98.96     LegendNANA
12:00 8.9 2.8 66   27 19 24.1 98.95     LegendNANA
13:00 8.8 3.1 68   27 19 24.1 98.95     Mainly Clear
14:00 7.7 3.0 72   27 21 24.1 98.97     LegendNANA
15:00 7.5 0.8 62   28 23 24.1 98.98     LegendNANA
16:00 8.1 -0.2 56   29 20 24.1 98.99     Mostly Cloudy
17:00 7.6 -0.5 57   29 21 24.1 99.02     LegendNANA
18:00 6.8 1.4 69   27 18 24.1 99.07     LegendNANA
19:00 5.5 1.3 74   26 15 24.1 99.11     Clear
20:00 4.5 1.6 82   26 12 24.1 99.13     LegendNANA
21:00 4.5 1.4 80   27 15 24.1 99.13     LegendNANA
22:00 4.4 2.0 84   28 15 24.1 99.13     Clear
23:00 4.3 2.0 85   28 19 24.1 99.12     LegendNANA

Notes on Data Quality.

Legend

  • E = Estimated
  • M = Missing
  • NA = Not Available*
  • [empty] = Indicates an unobserved value
Date modified: